SL-12 R/B(2) (15772 NORAD) Tracking and Keplerian Element Data

This shows tracking and keplerian element data for the satellite.

Feedback or suggestion? Click here.




ElementValue
Catalog15772
NameSL-12 R/B(2)
Epoch Orbit257
Epoch Day12.98363722
Epoch Year2024
RAAN309.2773
Inclination71.109
Eccentricity0.0037838
Argument of Perigee269.8358
Mean Anonmoly159.7648
Mean Motion14.21546305
Decay Rate1.7E-06
L11 15772U 85042D 24012.98363722 .00000170 00000+0 98517-4 0 9991
L22 15772 71.1090 309.2773 0037838 269.8358 159.7648 14.21546305 2578



Live tracking and technical data element details for SL-12 R/B(2) (NORAD 15772). SL-12 R/B(2) can be tracked NOW for your location showing map with azimuth and elevation plus other details from your city location.







IsCatalogInMostPopularTable: catalog: 15772, numindb: 321
Update: records affected: 1



GetName: 15772 SL-12 R/B(2)

Hit Count: updated at: Fri, 19 Apr 2024 12:05:08 GMT